Location: Bartshausen
(51.8454°N, 9.8167°E)
Time: 08:50:13
(UTC+00:00)

Cosmos 371 Rocket - Pass Details

Date: 08 November 2025
Orbit: 674 x 690 km, 74.0° (Epoch: 11 December)

Event Time Altitude Azimuth Distance (km) Brightness Sun altitude
Exits shadow 04:44:22 - 339° (NNW) 2,706 6.1 -16.1°
Reaches altitude 10° 04:45:49 10° 342° (NNW) 2,153 5.6 -15.9°
Maximum altitude 04:50:33 51° 59° (ENE) 873 4.1 -15.1°
Drops below altitude 10° 04:55:15 10° 136° (SE) 2,142 6.6 -14.4°
Sets 04:57:37 0° 141° (SE) 3,054 7.4 -14.1°
